| time (UTC) | temp C | wind direction | speed KPH | gust KPH | rain 1hr cm | rain 24hr cm | rain mn cm | humidity % | barometer mb |
| 20260510093445 | 17 | 4 | 11.3 | 16.1 | 0.00 | 0.00 | 0.00 | 63 | 1013.9 |
| 20260510092402 | 17 | 6 | 6.4 | 11.3 | 0.00 | 0.00 | 0.00 | 61 | 1013.9 |
| 20260510092036 | 17 | 13 | 0.0 | 4.8 | 0.00 | 0.00 | 0.00 | 59 | 1013.9 |
| 20260510091156 | 17 | 21 | 1.6 | 12.9 | 0.00 | 0.00 | 0.00 | 56 | 1013.9 |
| 20260510090600 | 18 | 24 | 0.0 | 3.2 | 0.00 | 0.00 | 0.00 | 53 | 1013.6 |
| 20260510090219 | 18 | 15 | 0.0 | 9.7 | 0.00 | 0.00 | 0.00 | 49 | 1013.6 |
| 20260510085359 | 18 | 51 | 8.0 | 9.7 | 0.00 | 0.00 | 0.00 | 47 | 1013.9 |
| 20260510084756 | 18 | 7 | 1.6 | 12.9 | 0.00 | 0.00 | 0.00 | 44 | 1013.9 |
| 20260510084155 | 18 | 343 | 9.7 | 12.9 | 0.00 | 0.00 | 0.00 | 42 | 1013.6 |
| 20260510083820 | 19 | 5 | 0.0 | 9.7 | 0.00 | 0.00 | 0.00 | 38 | 1013.6 |
| 20260510083035 | 19 | 5 | 8.0 | 14.5 | 0.00 | 0.00 | 0.00 | 37 | 1013.3 |
| 20260510082450 | 19 | 72 | 0.0 | 6.4 | 0.00 | 0.00 | 0.00 | 35 | 1013.3 |
| 20260510081913 | 19 | 17 | 0.0 | 0.0 | 0.00 | 0.00 | 0.00 | 33 | 1013.3 |
| 20260510081248 | 19 | 349 | 0.0 | 1.6 | 0.00 | 0.00 | 0.00 | 32 | 1013.6 |
| 20260510080907 | 20 | 4 | 0.0 | 6.4 | 0.00 | 0.00 | 0.00 | 31 | 1013.6 |
| 20260510080058 | 20 | 346 | 0.0 | 4.8 | 0.00 | 0.00 | 0.00 | 30 | 1013.6 |
| 20260510075454 | 20 | 354 | 0.0 | 1.6 | 0.00 | 0.00 | 0.00 | 29 | 1013.3 |
| 20260510075124 | 21 | 41 | 0.0 | 4.8 | 0.00 | 0.00 | 0.00 | 28 | 1013.3 |
| 20260510074245 | 21 | 14 | 3.2 | 12.9 | 0.00 | 0.00 | 0.00 | 27 | 1013.3 |
| 20260510073914 | 21 | 14 | 0.0 | 17.7 | 0.00 | 0.00 | 0.00 | 26 | 1013.6 |
| 20260510073111 | 22 | 5 | 0.0 | 14.5 | 0.00 | 0.00 | 0.00 | 24 | 1013.6 |
| 20260510072445 | 22 | 17 | 6.4 | 12.9 | 0.00 | 0.00 | 0.00 | 24 | 1013.3 |
| 20260510071856 | 22 | 12 | 0.0 | 1.6 | 0.00 | 0.00 | 0.00 | 23 | 1013.9 |
| 20260510071256 | 21 | 4 | 0.0 | 3.2 | 0.00 | 0.00 | 0.00 | 23 | 1013.9 |
| 20260510070649 | 21 | 42 | 0.0 | 4.8 | 0.00 | 0.00 | 0.00 | 24 | 1013.6 |
| 20260510070051 | 21 | 357 | 0.0 | 1.6 | 0.00 | 0.00 | 0.00 | 23 | 1013.3 |
| 20260510065458 | 21 | 30 | 0.0 | 0.0 | 0.00 | 0.00 | 0.00 | 23 | 1013.3 |
| 20260510065116 | 21 | 10 | 0.0 | 3.2 | 0.00 | 0.00 | 0.00 | 23 | 1013.6 |
| 20260510064242 | 22 | 355 | 0.0 | 0.0 | 0.00 | 0.00 | 0.00 | 21 | 1013.3 |
| 20260510063928 | 22 | 353 | 0.0 | 0.0 | 0.00 | 0.00 | 0.00 | 21 | 1013.3 |
| 20260510063058 | 23 | 31 | 0.0 | 0.0 | 0.00 | 0.00 | 0.00 | 21 | 1013.3 |
| 20260510062500 | 23 | 161 | 0.0 | 0.0 | 0.00 | 0.00 | 0.00 | 19 | 1012.9 |
| 20260510061907 | 23 | 149 | 0.0 | 0.0 | 0.00 | 0.00 | 0.00 | 19 | 1012.6 |
| 20260510061254 | 23 | 154 | 0.0 | 0.0 | 0.00 | 0.00 | 0.00 | 20 | 1012.6 |
| 20260510060655 | 23 | 144 | 0.0 | 0.0 | 0.00 | 0.00 | 0.00 | 20 | 1012.6 |
| 20260510060113 | 23 | 127 | 0.0 | 0.0 | 0.00 | 0.00 | 0.00 | 21 | 1012.6 |
| 20260510055455 | 23 | 134 | 0.0 | 0.0 | 0.00 | 0.00 | 0.00 | 20 | 1012.6 |
| 20260510054903 | 23 | 3 | 0.0 | 0.0 | 0.00 | 0.00 | 0.00 | 20 | 1012.3 |
| 20260510054355 | 23 | 3 | 0.0 | 0.0 | 0.00 | 0.00 | 0.00 | 20 | 1012.6 |
| 20260510054038 | 23 | 3 | 0.0 | 0.0 | 0.00 | 0.00 | 0.00 | 20 | 1012.6 |
| 20260510053249 | 23 | 3 | 0.0 | 0.0 | 0.00 | 0.00 | 0.00 | 20 | 1012.6 |
| 20260510052701 | 24 | 3 | 0.0 | 0.0 | 0.00 | 0.00 | 0.00 | 19 | 1012.6 |
| 20260510052113 | 24 | 3 | 0.0 | 0.0 | 0.00 | 0.00 | 0.00 | 20 | 1012.6 |
| 20260510051716 | 25 | 3 | 0.0 | 0.0 | 0.00 | 0.00 | 0.00 | 18 | 1012.9 |
| 20260510050853 | 26 | 4 | 0.0 | 1.6 | 0.00 | 0.00 | 0.00 | 18 | 1012.6 |
| 20260510050252 | 27 | 3 | 0.0 | 14.5 | 0.00 | 0.00 | 0.00 | 16 | 1012.9 |
| 20260510045650 | 27 | 78 | 0.0 | 29.0 | 0.00 | 0.00 | 0.00 | 15 | 1012.9 |
| 20260510045053 | 26 | 66 | 1.6 | 20.9 | 0.00 | 0.00 | 0.00 | 17 | 1012.6 |
| 20260510044445 | 24 | 357 | 0.0 | 11.3 | 0.00 | 0.00 | 0.00 | 18 | 1012.6 |
| 20260510043857 | 22 | 350 | 3.2 | 6.4 | 0.00 | 0.00 | 0.00 | 20 | 1012.9 |
| 20260510043254 | 21 | 8 | 0.0 | 0.0 | 0.00 | 0.00 | 0.00 | 24 | 1012.9 |
| 20260510042657 | 21 | 204 | 0.0 | 0.0 | 0.00 | 0.00 | 0.00 | 24 | 1012.6 |
| 20260510042054 | 21 | 204 | 0.0 | 0.0 | 0.00 | 0.00 | 0.00 | 23 | 1012.6 |
| 20260510041506 | 22 | 204 | 0.0 | 0.0 | 0.00 | 0.00 | 0.00 | 23 | 1012.3 |
| 20260510040852 | 22 | 204 | 0.0 | 0.0 | 0.00 | 0.00 | 0.00 | 21 | 1011.9 |
| 20260510040252 | 22 | 204 | 0.0 | 0.0 | 0.00 | 0.00 | 0.00 | 21 | 1012.3 |
| 20260510035919 | 22 | 204 | 0.0 | 0.0 | 0.00 | 0.00 | 0.00 | 23 | 1012.3 |
| 20260510035111 | 22 | 204 | 0.0 | 0.0 | 0.00 | 0.00 | 0.00 | 21 | 1012.3 |
| 20260510034511 | 22 | 204 | 0.0 | 0.0 | 0.00 | 0.00 | 0.00 | 22 | 1012.3 |
| 20260510034113 | 22 | 213 | 0.0 | 0.0 | 0.00 | 0.00 | 0.00 | 23 | 1012.3 |
| 20260510033250 | 21 | 215 | 0.0 | 0.0 | 0.00 | 0.00 | 0.00 | 22 | 1012.3 |
| 20260510032658 | 22 | 215 | 0.0 | 0.0 | 0.00 | 0.00 | 0.00 | 22 | 1012.3 |
| 20260510032315 | 22 | 215 | 0.0 | 0.0 | 0.00 | 0.00 | 0.00 | 21 | 1012.3 |
| 20260510031457 | 23 | 215 | 0.0 | 0.0 | 0.00 | 0.00 | 0.00 | 20 | 1011.9 |
| 20260510030852 | 23 | 209 | 0.0 | 0.0 | 0.00 | 0.00 | 0.00 | 20 | 1012.3 |
| 20260510030254 | 24 | 203 | 0.0 | 0.0 | 0.00 | 0.00 | 0.00 | 19 | 1011.9 |
| 20260510025654 | 24 | 203 | 0.0 | 0.0 | 0.00 | 0.00 | 0.00 | 19 | 1011.9 |
| 20260510025312 | 25 | 203 | 0.0 | 0.0 | 0.00 | 0.00 | 0.00 | 18 | 1011.6 |
| 20260510024511 | 25 | 203 | 0.0 | 0.0 | 0.00 | 0.00 | 0.00 | 18 | 1011.6 |
| 20260510023853 | 25 | 151 | 0.0 | 0.0 | 0.00 | 0.00 | 0.00 | 17 | 1011.6 |
| 20260510023516 | 25 | 168 | 0.0 | 0.0 | 0.00 | 0.00 | 0.00 | 17 | 1011.2 |
| 20260510022700 | 26 | 142 | 0.0 | 0.0 | 0.00 | 0.00 | 0.00 | 17 | 1011.2 |
| 20260510022051 | 26 | 205 | 0.0 | 0.0 | 0.00 | 0.00 | 0.00 | 16 | 1011.2 |
| 20260510021714 | 26 | 198 | 0.0 | 0.0 | 0.00 | 0.00 | 0.00 | 16 | 1011.2 |
| 20260510020856 | 26 | 186 | 0.0 | 0.0 | 0.00 | 0.00 | 0.00 | 16 | 1011.2 |
| 20260510020519 | 26 | 204 | 0.0 | 0.0 | 0.00 | 0.00 | 0.00 | 15 | 1011.2 |
| 20260510015657 | 26 | 202 | 0.0 | 0.0 | 0.00 | 0.00 | 0.00 | 15 | 1010.9 |
| 20260510015059 | 27 | 192 | 0.0 | 0.0 | 0.00 | 0.00 | 0.00 | 15 | 1011.2 |
| 20260510014452 | 27 | 193 | 0.0 | 0.0 | 0.00 | 0.00 | 0.00 | 15 | 1011.2 |
| 20260510013851 | 28 | 202 | 0.0 | 0.0 | 0.00 | 0.00 | 0.00 | 13 | 1010.6 |
| 20260510013254 | 28 | 191 | 0.0 | 3.2 | 0.00 | 0.00 | 0.00 | 13 | 1010.9 |
| 20260510012656 | 28 | 199 | 1.6 | 3.2 | 0.00 | 0.00 | 0.00 | 13 | 1010.6 |
| 20260510012112 | 28 | 354 | 0.0 | 0.0 | 0.00 | 0.00 | 0.00 | 13 | 1010.9 |
| 20260510011712 | 29 | 214 | 0.0 | 12.9 | 0.00 | 0.00 | 0.00 | 13 | 1010.9 |
| 20260510010847 | 28 | 196 | 0.0 | 0.0 | 0.00 | 0.00 | 0.00 | 15 | 1011.2 |
| 20260510010252 | 28 | 208 | 0.0 | 0.0 | 0.00 | 0.00 | 0.00 | 15 | 1011.2 |
| 20260510010129 | 28 | 207 | 0.0 | 12.9 | 0.00 | 0.00 | 0.00 | 14 | 1010.9 |
| 20260510005053 | 28 | 203 | 1.6 | 9.7 | 0.00 | 0.00 | 0.00 | 14 | 1010.9 |
| 20260510004714 | 28 | 192 | 3.2 | 9.7 | 0.00 | 0.00 | 0.00 | 14 | 1011.2 |
| 20260510003856 | 29 | 188 | 0.0 | 1.6 | 0.00 | 0.00 | 0.00 | 14 | 1010.9 |
| 20260510003245 | 29 | 216 | 0.0 | 1.6 | 0.00 | 0.00 | 0.00 | 13 | 1011.2 |
| 20260510002655 | 30 | 219 | 0.0 | 0.0 | 0.00 | 0.00 | 0.00 | 13 | 1011.2 |
| 20260510002102 | 30 | 198 | 0.0 | 0.0 | 0.00 | 0.00 | 0.00 | 14 | 1011.2 |
| 20260510001451 | 30 | 219 | 0.0 | 16.1 | 0.00 | 0.00 | 0.00 | 14 | 1010.9 |
| 20260510000855 | 30 | 182 | 9.7 | 16.1 | 0.00 | 0.00 | 0.00 | 13 | 1011.2 |
| 20260510000250 | 30 | 190 | 3.2 | 16.1 | 0.00 | 0.00 | 0.00 | 14 | 1011.2 |
| 20260509235648 | 30 | 226 | 0.0 | 9.7 | 0.00 | 0.00 | 0.00 | 14 | 1010.9 |
| 20260509235051 | 30 | 194 | 1.6 | 4.8 | 0.00 | 0.00 | 0.00 | 13 | 1011.2 |
| 20260509234955 | 30 | 193 | 0.0 | 0.0 | 0.00 | 0.00 | 0.00 | 14 | 1010.9 |
| 20260509233854 | 30 | 183 | 0.0 | 0.0 | 0.00 | 0.00 | 0.00 | 15 | 1010.9 |
| 20260509233306 | 30 | 236 | 0.0 | 11.3 | 0.00 | 0.00 | 0.00 | 13 | 1011.2 |
| 20260509232701 | 30 | 227 | 4.8 | 11.3 | 0.00 | 0.00 | 0.00 | 12 | 1010.9 |
| 20260509232055 | 30 | 133 | 0.0 | 11.3 | 0.00 | 0.00 | 0.00 | 13 | 1010.9 |
| 20260509231713 | 31 | 181 | 3.2 | 22.5 | 0.00 | 0.00 | 0.00 | 13 | 1010.9 |
| 20260509231006 | 31 | 196 | 0.0 | 11.3 | 0.00 | 0.00 | 0.00 | 12 | 1011.2 |
| 20260509230852 | 32 | 229 | 11.3 | 22.5 | 0.00 | 0.00 | 0.00 | 12 | 1011.2 |
| 20260509225653 | 32 | 199 | 0.0 | 16.1 | 0.00 | 0.00 | 0.00 | 12 | 1010.9 |
| 20260509225056 | 33 | 220 | 9.7 | 16.1 | 0.00 | 0.00 | 0.00 | 11 | 1011.2 |
| 20260509224721 | 33 | 209 | 0.0 | 3.2 | 0.00 | 0.00 | 0.00 | 11 | 1011.2 |
| 20260509224056 | 32 | 212 | 0.0 | 3.2 | 0.00 | 0.00 | 0.00 | 11 | 1010.9 |
| 20260509223302 | 33 | 201 | 1.6 | 3.2 | 0.00 | 0.00 | 0.00 | 11 | 1011.2 |
| 20260509222653 | 32 | 212 | 0.0 | 1.6 | 0.00 | 0.00 | 0.00 | 11 | 1011.2 |
| 20260509222052 | 32 | 201 | 0.0 | 12.9 | 0.00 | 0.00 | 0.00 | 11 | 1011.2 |
| 20260509221510 | 31 | 197 | 0.0 | 1.6 | 0.00 | 0.00 | 0.00 | 11 | 1011.2 |
| 20260509220855 | 32 | 227 | 0.0 | 0.0 | 0.00 | 0.00 | 0.00 | 11 | 1011.2 |
| 20260509220225 | 32 | 242 | 0.0 | 3.2 | 0.00 | 0.00 | 0.00 | 12 | 1011.2 |
| 20260509215653 | 31 | 339 | 0.0 | 0.0 | 0.00 | 0.00 | 0.00 | 12 | 1011.2 |
| 20260509215306 | 31 | 194 | 0.0 | 0.0 | 0.00 | 0.00 | 0.00 | 13 | 1011.6 |
| 20260509214452 | 31 | 128 | 0.0 | 0.0 | 0.00 | 0.00 | 0.00 | 12 | 1011.9 |
| 20260509213844 | 31 | 148 | 0.0 | 0.0 | 0.00 | 0.00 | 0.00 | 11 | 1011.6 |
| 20260509213252 | 31 | 236 | 0.0 | 4.8 | 0.00 | 0.00 | 0.00 | 11 | 1011.9 |
| 20260509212650 | 32 | 177 | 1.6 | 4.8 | 0.00 | 0.00 | 0.00 | 11 | 1011.6 |
| 20260509212049 | 32 | 162 | 0.0 | 0.0 | 0.00 | 0.00 | 0.00 | 11 | 1011.9 |
| 20260509211452 | 33 | 240 | 0.0 | 0.0 | 0.00 | 0.00 | 0.00 | 10 | 1012.3 |
| 20260509210850 | 33 | 197 | 0.0 | 0.0 | 0.00 | 0.00 | 0.00 | 10 | 1012.3 |
| 20260509210329 | 33 | 240 | 0.0 | 1.6 | 0.00 | 0.00 | 0.00 | 10 | 1012.3 |
| 20260509205804 | 33 | 350 | 0.0 | 17.7 | 0.00 | 0.00 | 0.00 | 10 | 1012.6 |
| 20260509205516 | 33 | 263 | 6.4 | 17.7 | 0.00 | 0.00 | 0.00 | 10 | 1012.3 |
| 20260509204654 | 33 | 231 | 0.0 | 3.2 | 0.00 | 0.00 | 0.00 | 10 | 1012.3 |
| 20260509204051 | 33 | 19 | 0.0 | 4.8 | 0.00 | 0.00 | 0.00 | 11 | 1012.3 |
| 20260509203453 | 33 | 325 | 1.6 | 4.8 | 0.00 | 0.00 | 0.00 | 10 | 1012.9 |
| 20260509202852 | 32 | 201 | 0.0 | 14.5 | 0.00 | 0.00 | 0.00 | 12 | 1012.6 |
| 20260509202254 | 33 | 246 | 4.8 | 14.5 | 0.00 | 0.00 | 0.00 | 11 | 1012.9 |
| 20260509201658 | 33 | 321 | 0.0 | 0.0 | 0.00 | 0.00 | 0.00 | 12 | 1013.3 |
| 20260509201032 | 33 | 247 | 0.0 | 0.0 | 0.00 | 0.00 | 0.00 | 11 | 1012.9 |
| 20260509200451 | 32 | 357 | 0.0 | 14.5 | 0.00 | 0.00 | 0.00 | 11 | 1013.3 |
| 20260509195853 | 33 | 344 | 0.0 | 0.0 | 0.00 | 0.00 | 0.00 | 11 | 1012.9 |
| 20260509195247 | 33 | 165 | 0.0 | 1.6 | 0.00 | 0.00 | 0.00 | 11 | 1012.9 |
| 20260509194658 | 32 | 241 | 0.0 | 1.6 | 0.00 | 0.00 | 0.00 | 12 | 1013.3 |
| 20260509194052 | 32 | 316 | 0.0 | 0.0 | 0.00 | 0.00 | 0.00 | 11 | 1013.3 |
| 20260509193443 | 32 | 271 | 0.0 | 0.0 | 0.00 | 0.00 | 0.00 | 12 | 1013.3 |
| 20260509192854 | 32 | 12 | 0.0 | 0.0 | 0.00 | 0.00 | 0.00 | 12 | 1013.6 |
| 20260509192307 | 32 | 226 | 0.0 | 0.0 | 0.00 | 0.00 | 0.00 | 14 | 1013.6 |
| 20260509192011 | 32 | 284 | 0.0 | 0.0 | 0.00 | 0.00 | 0.00 | 13 | 1013.6 |
| 20260509191150 | 32 | 208 | 0.0 | 0.0 | 0.00 | 0.00 | 0.00 | 13 | 1013.6 |
| 20260509190601 | 32 | 216 | 0.0 | 0.0 | 0.00 | 0.00 | 0.00 | 13 | 1013.6 |
| 20260509185954 | 32 | 139 | 0.0 | 0.0 | 0.00 | 0.00 | 0.00 | 14 | 1013.6 |
| 20260509185346 | 32 | 185 | 0.0 | 0.0 | 0.00 | 0.00 | 0.00 | 14 | 1013.9 |
| 20260509184753 | 32 | 168 | 0.0 | 4.8 | 0.00 | 0.00 | 0.00 | 13 | 1014.3 |
| 20260509184204 | 31 | 190 | 1.6 | 11.3 | 0.00 | 0.00 | 0.00 | 14 | 1013.9 |
| 20260509183656 | 32 | 216 | 3.2 | 11.3 | 0.00 | 0.00 | 0.00 | 14 | 1014.3 |
| 20260509183052 | 31 | 185 | 0.0 | 0.0 | 0.00 | 0.00 | 0.00 | 16 | 1014.3 |
| 20260509182719 | 31 | 212 | 0.0 | 0.0 | 0.00 | 0.00 | 0.00 | 14 | 1014.6 |
| 20260509181912 | 30 | 192 | 0.0 | 9.7 | 0.00 | 0.00 | 0.00 | 15 | 1014.6 |
| 20260509181255 | 30 | 215 | 0.0 | 9.7 | 0.00 | 0.00 | 0.00 | 15 | 1014.6 |
| 20260509180652 | 30 | 205 | 0.0 | 6.4 | 0.00 | 0.00 | 0.00 | 14 | 1014.6 |
| 20260509180058 | 30 | 172 | 0.0 | 3.2 | 0.00 | 0.00 | 0.00 | 15 | 1014.6 |
| 20260509175452 | 31 | 229 | 0.0 | 0.0 | 0.00 | 0.00 | 0.00 | 15 | 1015.0 |
| 20260509174932 | 30 | 150 | 0.0 | 3.2 | 0.00 | 0.00 | 0.00 | 17 | 1015.0 |
| 20260509174612 | 30 | 191 | 0.0 | 4.8 | 0.00 | 0.00 | 0.00 | 17 | 1015.0 |
| 20260509173803 | 30 | 182 | 3.2 | 4.8 | 0.00 | 0.00 | 0.00 | 19 | 1015.0 |
| 20260509173245 | 29 | 348 | 0.0 | 3.2 | 0.00 | 0.00 | 0.00 | 21 | 1015.0 |
| 20260509172651 | 29 | 185 | 0.0 | 0.0 | 0.00 | 0.00 | 0.00 | 21 | 1015.0 |
| 20260509172056 | 28 | 179 | 0.0 | 0.0 | 0.00 | 0.00 | 0.00 | 21 | 1015.3 |
| 20260509171457 | 28 | 200 | 0.0 | 22.5 | 0.00 | 0.00 | 0.00 | 21 | 1015.3 |
| 20260509170847 | 28 | 206 | 9.7 | 22.5 | 0.00 | 0.00 | 0.00 | 21 | 1015.3 |
| 20260509170516 | 27 | 229 | 0.0 | 14.5 | 0.00 | 0.00 | 0.00 | 23 | 1015.0 |
| 20260509165919 | 27 | 200 | 3.2 | 9.7 | 0.00 | 0.00 | 0.00 | 22 | 1015.6 |
| 20260509165055 | 27 | 186 | 0.0 | 6.4 | 0.00 | 0.00 | 0.00 | 23 | 1015.6 |
| 20260509164457 | 27 | 206 | 3.2 | 6.4 | 0.00 | 0.00 | 0.00 | 23 | 1015.6 |
| 20260509164104 | 26 | 182 | 0.0 | 6.4 | 0.00 | 0.00 | 0.00 | 24 | 1015.3 |
| 20260509163256 | 27 | 200 | 0.0 | 6.4 | 0.00 | 0.00 | 0.00 | 23 | 1015.3 |
| 20260509162708 | 26 | 187 | 3.2 | 11.3 | 0.00 | 0.00 | 0.00 | 24 | 1015.6 |
| 20260509162106 | 25 | 200 | 0.0 | 17.7 | 0.00 | 0.00 | 0.00 | 25 | 1015.6 |
| 20260509161553 | 25 | 192 | 0.0 | 11.3 | 0.00 | 0.00 | 0.00 | 24 | 1015.3 |
| 20260509160947 | 25 | 203 | 4.8 | 4.8 | 0.00 | 0.00 | 0.00 | 26 | 1015.3 |
| 20260509160419 | 24 | 136 | 0.0 | 9.7 | 0.00 | 0.00 | 0.00 | 26 | 1015.0 |
| 20260509155804 | 23 | 204 | 3.2 | 17.7 | 0.00 | 0.00 | 0.00 | 27 | 1015.0 |
| 20260509155151 | 23 | 228 | 3.2 | 16.1 | 0.00 | 0.00 | 0.00 | 27 | 1015.3 |
| 20260509154551 | 23 | 142 | 0.0 | 3.2 | 0.00 | 0.00 | 0.00 | 27 | 1015.0 |
| 20260509154004 | 23 | 185 | 0.0 | 3.2 | 0.00 | 0.00 | 0.00 | 29 | 1015.3 |
| 20260509153350 | 23 | 159 | 0.0 | 14.5 | 0.00 | 0.00 | 0.00 | 29 | 1015.3 |
| 20260509152755 | 22 | 173 | 0.0 | 14.5 | 0.00 | 0.00 | 0.00 | 31 | 1015.0 |
| 20260509152634 | 21 | 198 | 1.6 | 14.5 | 0.00 | 0.00 | 0.00 | 32 | 1015.3 |
| 20260509151552 | 21 | 149 | 0.0 | 20.9 | 0.00 | 0.00 | 0.00 | 33 | 1015.0 |
| 20260509150957 | 21 | 159 | 4.8 | 20.9 | 0.00 | 0.00 | 0.00 | 33 | 1015.3 |
| 20260509150619 | 21 | 144 | 3.2 | 14.5 | 0.00 | 0.00 | 0.00 | 33 | 1015.0 |
| 20260509150029 | 20 | 130 | 6.4 | 14.5 | 0.00 | 0.00 | 0.00 | 35 | 1015.3 |
| 20260509145203 | 20 | 151 | 4.8 | 20.9 | 0.00 | 0.00 | 0.00 | 35 | 1015.3 |
| 20260509144616 | 20 | 131 | 9.7 | 14.5 | 0.00 | 0.00 | 0.00 | 36 | 1015.3 |
| 20260509144008 | 19 | 158 | 6.4 | 14.5 | 0.00 | 0.00 | 0.00 | 37 | 1015.3 |
| 20260509143609 | 19 | 128 | 11.3 | 14.5 | 0.00 | 0.00 | 0.00 | 38 | 1015.6 |
| 20260509142913 | 18 | 136 | 6.4 | 11.3 | 0.00 | 0.00 | 0.00 | 39 | 1015.6 |
| 20260509142753 | 19 | 160 | 1.6 | 14.5 | 0.00 | 0.00 | 0.00 | 39 | 1015.3 |
| 20260509141557 | 18 | 159 | 3.2 | 9.7 | 0.00 | 0.00 | 0.00 | 40 | 1015.6 |
| 20260509140951 | 18 | 131 | 4.8 | 6.4 | 0.00 | 0.00 | 0.00 | 41 | 1015.6 |
| 20260509140351 | 18 | 130 | 0.0 | 6.4 | 0.00 | 0.00 | 0.00 | 42 | 1015.6 |
| 20260509140108 | 18 | 145 | 0.0 | 4.8 | 0.00 | 0.00 | 0.00 | 43 | 1015.6 |
| 20260509135249 | 17 | 142 | 1.6 | 4.8 | 0.00 | 0.00 | 0.00 | 43 | 1015.6 |
| 20260509134656 | 17 | 140 | 0.0 | 3.2 | 0.00 | 0.00 | 0.00 | 44 | 1015.6 |
| 20260509134152 | 17 | 147 | 0.0 | 0.0 | 0.00 | 0.00 | 0.00 | 44 | 1016.0 |
| 20260509133746 | 16 | 107 | 0.0 | 0.0 | 0.00 | 0.00 | 0.00 | 42 | 1015.6 |
| 20260509133633 | 17 | 130 | 0.0 | 0.0 | 0.00 | 0.00 | 0.00 | 43 | 1015.6 |
| 20260509132456 | 16 | 107 | 0.0 | 0.0 | 0.00 | 0.00 | 0.00 | 41 | 1015.6 |
| 20260509131846 | 16 | 107 | 0.0 | 0.0 | 0.00 | 0.00 | 0.00 | 43 | 1015.6 |
| 20260509131257 | 15 | 107 | 0.0 | 0.0 | 0.00 | 0.00 | 0.00 | 43 | 1015.3 |
| 20260509130652 | 16 | 107 | 0.0 | 0.0 | 0.00 | 0.00 | 0.00 | 42 | 1015.3 |
| 20260509130534 | 15 | 107 | 0.0 | 0.0 | 0.00 | 0.00 | 0.00 | 44 | 1015.3 |
| 20260509125504 | 13 | 106 | 0.0 | 0.0 | 0.00 | 0.00 | 0.00 | 46 | 1015.3 |
| 20260509124856 | 13 | 106 | 0.0 | 0.0 | 0.00 | 0.00 | 0.00 | 48 | 1015.3 |
| 20260509124257 | 12 | 106 | 0.0 | 0.0 | 0.00 | 0.00 | 0.00 | 49 | 1015.6 |
| 20260509123718 | 11 | 106 | 0.0 | 0.0 | 0.00 | 0.00 | 0.00 | 50 | 1015.0 |
| 20260509123153 | 10 | 105 | 0.0 | 0.0 | 0.00 | 0.00 | 0.00 | 55 | 1015.0 |
| 20260509123052 | 10 | 105 | 0.0 | 0.0 | 0.00 | 0.00 | 0.00 | 53 | 1015.3 |
| 20260509121912 | 10 | 105 | 0.0 | 0.0 | 0.00 | 0.00 | 0.00 | 55 | 1015.0 |
| 20260509121251 | 10 | 106 | 0.0 | 0.0 | 0.00 | 0.00 | 0.00 | 56 | 1015.0 |
| 20260509120654 | 10 | 106 | 0.0 | 0.0 | 0.00 | 0.00 | 0.00 | 56 | 1015.3 |
| 20260509120233 | 10 | 106 | 0.0 | 0.0 | 0.00 | 0.00 | 0.00 | 54 | 1015.0 |
| 20260509120112 | 10 | 106 | 0.0 | 0.0 | 0.00 | 0.00 | 0.00 | 55 | 1015.3 |
| 20260509114852 | 10 | 106 | 0.0 | 0.0 | 0.00 | 0.00 | 0.00 | 53 | 1015.0 |
| 20260509114306 | 10 | 106 | 0.0 | 0.0 | 0.00 | 0.00 | 0.00 | 52 | 1015.0 |
| 20260509113652 | 11 | 106 | 0.0 | 0.0 | 0.00 | 0.00 | 0.00 | 52 | 1015.0 |
| 20260509113051 | 11 | 107 | 0.0 | 0.0 | 0.00 | 0.00 | 0.00 | 52 | 1015.0 |
| 20260509112454 | 12 | 107 | 0.0 | 0.0 | 0.00 | 0.00 | 0.00 | 50 | 1015.0 |
| 20260509112119 | 12 | 107 | 0.0 | 0.0 | 0.00 | 0.00 | 0.00 | 49 | 1015.3 |
| 20260509111250 | 12 | 107 | 0.0 | 0.0 | 0.00 | 0.00 | 0.00 | 48 | 1015.0 |
| 20260509110717 | 13 | 107 | 0.0 | 0.0 | 0.00 | 0.00 | 0.00 | 46 | 1015.0 |
| 20260509110055 | 13 | 108 | 0.0 | 0.0 | 0.00 | 0.00 | 0.00 | 46 | 1015.0 |
| 20260509105456 | 13 | 107 | 0.0 | 0.0 | 0.00 | 0.00 | 0.00 | 46 | 1015.0 |
| 20260509104858 | 13 | 108 | 0.0 | 0.0 | 0.00 | 0.00 | 0.00 | 45 | 1015.0 |
| 20260509104313 | 13 | 107 | 0.0 | 0.0 | 0.00 | 0.00 | 0.00 | 43 | 1015.0 |
| 20260509103653 | 14 | 106 | 0.0 | 0.0 | 0.00 | 0.00 | 0.00 | 42 | 1015.0 |
| 20260509103056 | 14 | 116 | 0.0 | 0.0 | 0.00 | 0.00 | 0.00 | 42 | 1015.3 |
| 20260509102454 | 14 | 124 | 0.0 | 0.0 | 0.00 | 0.00 | 0.00 | 42 | 1015.0 |
| 20260509101902 | 15 | 133 | 0.0 | 1.6 | 0.00 | 0.00 | 0.00 | 41 | 1015.6 |
| 20260509101251 | 15 | 128 | 0.0 | 0.0 | 0.00 | 0.00 | 0.00 | 42 | 1015.3 |
| 20260509100900 | 15 | 124 | 0.0 | 3.2 | 0.00 | 0.00 | 0.00 | 42 | 1015.6 |
| 20260509100050 | 15 | 123 | 1.6 | 3.2 | 0.00 | 0.00 | 0.00 | 42 | 1015.3 |
| 20260509095508 | 15 | 114 | 0.0 | 0.0 | 0.00 | 0.00 | 0.00 | 41 | 1015.3 |
| 20260509094856 | 14 | 109 | 0.0 | 0.0 | 0.00 | 0.00 | 0.00 | 42 | 1015.3 |
| 20260509094252 | 14 | 110 | 0.0 | 0.0 | 0.00 | 0.00 | 0.00 | 42 | 1015.3 |
| 20260509093917 | 14 | 112 | 0.0 | 0.0 | 0.00 | 0.00 | 0.00 | 42 | 1015.3 |